EW2318 Weather Reports


Display with metric or nautical units.
time (UTC)temp
F
wind
direction
speed
MPH
gust
MPH
rain 1hr
in
rain 24hr
in
rain mn
in
humidity
%
barometer
mb
20191211122309 31 277 2.0 7.0 0.00 0.00 0.00 60 1018.3
20191211121809 31 269 1.0 3.0 0.00 0.00 0.00 60 1018.4
20191211121314 31 269 1.0 5.0 0.00 0.00 0.00 61 1018.4
20191211120811 31 269 1.0 3.0 0.00 0.00 0.00 59 1018.5
20191211120309 31 281 1.0 3.0 0.00 0.00 0.00 60 1018.5
20191211115813 31 281 2.0 6.0 0.00 0.00 0.00 60 1018.5
20191211115310 31 296 0.0 3.0 0.00 0.00 0.00 63 1018.6
20191211114809 31 296 0.0 3.0 0.00 0.00 0.00 65 1018.6
20191211114313 31 297 1.0 3.0 0.00 0.00 0.00 64 1018.7
20191211113809 31 304 1.0 5.0 0.00 0.00 0.00 67 1018.8
20191211113309 31 327 1.0 2.0 0.00 0.00 0.00 68 1018.9
20191211112813 31 331 1.0 3.0 0.00 0.00 0.00 69 1019.0
20191211112309 31 348 0.0 2.0 0.00 0.00 0.00 71 1019.2
20191211111810 31 348 0.0 2.0 0.00 0.00 0.00 73 1019.3
20191211111313 31 348 0.0 2.0 0.00 0.00 0.00 73 1019.4
20191211110809 31 348 0.0 1.0 0.00 0.00 0.00 72 1019.5
20191211110309 31 348 0.0 1.0 0.00 0.00 0.00 73 1019.5
20191211105813 31 348 0.0 1.0 0.00 0.00 0.00 73 1019.7
20191211105309 31 348 0.0 2.0 0.00 0.00 0.00 75 1019.7
20191211104809 31 348 0.0 2.0 0.00 0.00 0.00 78 1019.7
20191211104313 31 348 0.0 2.0 0.00 0.00 0.00 77 1019.8
20191211103809 31 348 0.0 1.0 0.00 0.00 0.00 79 1019.8
20191211103309 31 348 0.0 1.0 0.00 0.00 0.00 79 1020.0
20191211102814 30 348 0.0 1.0 0.00 0.00 0.00 79 1020.1
20191211101313 30 348 0.0 2.0 0.00 0.00 0.00 79 1020.3
20191211095310 30 348 0.0 0.0 0.00 0.00 0.00 81 1020.7
20191211094809 29 348 0.0 0.0 0.00 0.00 0.00 82 1020.8
20191211094314 29 348 0.0 1.0 0.00 0.00 0.00 84 1020.9
20191211093809 29 348 0.0 0.0 0.00 0.00 0.00 87 1020.9
20191211093309 28 348 0.0 0.0 0.00 0.00 0.00 89 1021.0
20191211092813 28 348 0.0 0.0 0.00 0.00 0.00 91 1021.2
20191211092309 28 348 0.0 0.0 0.00 0.00 0.00 92 1021.2
20191211091313 27 348 0.0 0.0 0.00 0.00 0.00 94 1021.3
20191211090309 27 348 0.0 0.0 0.00 0.00 0.00 94 1021.5
20191211085813 26 348 0.0 0.0 0.00 0.00 0.00 95 1021.5
20191211085309 26 348 0.0 0.0 0.00 0.00 0.00 95 1021.7
20191211084809 26 348 0.0 0.0 0.00 0.00 0.00 95 1021.8
20191211084313 25 348 0.0 0.0 0.00 0.00 0.00 95 1021.7
20191211083809 25 348 0.0 1.0 0.00 0.00 0.00 95 1021.8
20191211083309 25 348 0.0 0.0 0.00 0.00 0.00 95 1021.9
20191211082813 24 348 0.0 0.0 0.00 0.00 0.00 95 1022.0
20191211081809 22 348 0.0 0.0 0.00 0.00 0.00 94 1022.2
20191211081313 20 348 0.0 0.0 0.00 0.00 0.00 94 1022.2
20191211080809 19 348 0.0 0.0 0.00 0.00 0.00 94 1022.2
20191211080309 19 348 0.0 0.0 0.00 0.00 0.00 93 1022.2
20191211075814 18 348 0.0 0.0 0.00 0.00 0.00 93 1022.3
20191211075310 18 348 0.0 0.0 0.00 0.00 0.00 93 1022.3
20191211074809 18 348 0.0 0.0 0.00 0.00 0.00 93 1022.3
20191211074313 17 348 0.0 0.0 0.00 0.00 0.00 93 1022.3
20191211073809 17 348 0.0 0.0 0.00 0.00 0.00 93 1022.3
20191211073309 17 348 0.0 0.0 0.00 0.00 0.00 93 1022.2
20191211072813 17 348 0.0 0.0 0.00 0.00 0.00 92 1022.3
20191211072309 16 348 0.0 0.0 0.00 0.00 0.00 92 1022.3
20191211071809 16 348 0.0 0.0 0.00 0.00 0.00 92 1022.3
20191211071313 16 348 0.0 0.0 0.00 0.00 0.00 92 1022.3
20191211070809 16 348 0.0 0.0 0.00 0.00 0.00 92 1022.3
20191211065813 16 348 0.0 0.0 0.00 0.00 0.00 92 1022.3
20191211064809 16 348 0.0 0.0 0.00 0.00 0.00 92 1022.4
20191211064313 16 348 0.0 0.0 0.00 0.00 0.00 92 1022.4
20191211063810 16 348 0.0 0.0 0.00 0.00 0.00 92 1022.4
20191211063309 16 348 0.0 0.0 0.00 0.00 0.00 91 1022.5
20191211062813 16 348 0.0 0.0 0.00 0.00 0.00 91 1022.6
20191211062310 16 348 0.0 0.0 0.00 0.00 0.00 91 1022.6
20191211060810 16 348 0.0 0.0 0.00 0.00 0.00 91 1022.6
20191211060309 16 348 0.0 0.0 0.00 0.00 0.00 91 1022.5
20191211051809 16 348 0.0 0.0 0.00 0.00 0.00 91 1023.1
20191211050810 16 348 0.0 0.0 0.00 0.00 0.00 91 1023.2
20191211050309 16 348 0.0 0.0 0.00 0.00 0.00 91 1023.2
20191211045813 16 348 0.0 0.0 0.00 0.00 0.00 91 1023.3
20191211044809 16 348 0.0 0.0 0.00 0.00 0.00 91 1023.3
20191211044313 16 348 0.0 0.0 0.00 0.00 0.00 91 1023.4
20191211043809 16 348 0.0 0.0 0.00 0.00 0.00 90 1023.5
20191211043309 16 348 0.0 0.0 0.00 0.00 0.00 90 1023.4
20191211042813 16 348 0.0 0.0 0.00 0.00 0.00 90 1023.5
20191211042309 16 348 0.0 0.0 0.00 0.00 0.00 90 1023.5
20191211041809 16 348 0.0 0.0 0.00 0.00 0.00 90 1023.5
20191211041314 16 348 0.0 0.0 0.00 0.00 0.00 90 1023.6
20191211040809 16 348 0.0 0.0 0.00 0.00 0.00 89 1023.6
20191211040309 16 348 0.0 0.0 0.00 0.00 0.00 89 1023.7
20191211035813 16 348 0.0 0.0 0.00 0.00 0.00 89 1023.6
20191211035309 16 348 0.0 0.0 0.00 0.00 0.00 89 1023.8
20191211034809 16 348 0.0 0.0 0.00 0.00 0.00 89 1023.8
20191211034313 16 348 0.0 0.0 0.00 0.00 0.00 89 1023.8
20191211033309 16 348 0.0 0.0 0.00 0.00 0.00 89 1023.9
20191211032309 16 348 0.0 0.0 0.00 0.00 0.00 88 1024.0
20191211031809 16 348 0.0 0.0 0.00 0.00 0.00 89 1023.9
20191211031313 16 348 0.0 0.0 0.00 0.00 0.00 88 1024.0
20191211025813 16 348 0.0 0.0 0.00 0.00 0.00 88 1024.1
20191211025310 16 348 0.0 0.0 0.00 0.00 0.00 88 1024.2
20191211024809 16 348 0.0 0.0 0.00 0.00 0.00 87 1024.2
20191211023809 16 348 0.0 0.0 0.00 0.00 0.00 87 1024.3
20191211022814 17 348 0.0 0.0 0.00 0.00 0.00 86 1024.4
20191211022310 17 348 0.0 0.0 0.00 0.00 0.00 86 1024.4
20191211021809 17 348 0.0 0.0 0.00 0.00 0.00 86 1024.5
20191211021313 17 348 0.0 0.0 0.00 0.00 0.00 85 1024.6
20191211020810 17 348 0.0 0.0 0.00 0.00 0.00 84 1024.6
20191211020309 18 348 0.0 0.0 0.00 0.00 0.00 84 1024.8
20191211015813 18 348 0.0 0.0 0.00 0.00 0.00 84 1024.9
20191211015309 18 348 0.0 0.0 0.00 0.00 0.00 84 1024.8
20191211014313 18 348 0.0 0.0 0.00 0.00 0.00 83 1025.0
20191211013810 19 348 0.0 0.0 0.00 0.00 0.00 83 1025.1
20191211013309 19 348 0.0 0.0 0.00 0.00 0.00 83 1025.1
20191211012813 19 348 0.0 0.0 0.00 0.00 0.00 83 1025.0
20191211012309 20 348 0.0 0.0 0.00 0.00 0.00 83 1025.1
20191211011809 20 348 0.0 0.0 0.00 0.00 0.00 83 1025.2
20191211011313 20 348 0.0 0.0 0.00 0.00 0.00 84 1025.1
20191211010810 20 348 0.0 0.0 0.00 0.00 0.00 84 1025.2
20191211010311 20 348 0.0 0.0 0.00 0.00 0.00 83 1025.2
20191211005813 21 348 0.0 0.0 0.00 0.00 0.00 84 1025.3
20191211005309 21 348 0.0 0.0 0.00 0.00 0.00 84 1025.3
20191211004809 21 348 0.0 0.0 0.00 0.00 0.00 84 1025.3
20191211003809 21 348 0.0 0.0 0.00 0.00 0.00 84 1025.3
20191211003309 21 348 0.0 0.0 0.00 0.00 0.00 84 1025.2
20191211002814 21 348 0.0 0.0 0.00 0.00 0.00 83 1025.3
20191211002309 21 348 0.0 0.0 0.00 0.00 0.00 83 1025.3
20191211001809 21 348 0.0 0.0 0.00 0.00 0.00 83 1025.3
20191211001313 21 348 0.0 0.0 0.00 0.00 0.00 83 1025.2
20191211000810 21 348 0.0 0.0 0.00 0.00 0.00 83 1025.2
20191210235813 21 348 0.0 0.0 0.00 0.00 0.00 83 1025.2
20191210235309 22 348 0.0 0.0 0.00 0.00 0.00 83 1025.2
20191210234809 22 348 0.0 0.0 0.00 0.00 0.00 83 1025.2
20191210234313 22 348 0.0 0.0 0.00 0.00 0.00 82 1025.2
20191210233810 22 348 0.0 0.0 0.00 0.00 0.00 82 1025.3
20191210233309 22 348 0.0 0.0 0.00 0.00 0.00 83 1025.4
20191210232813 22 348 0.0 0.0 0.00 0.00 0.00 82 1025.4
20191210232309 22 348 0.0 0.0 0.00 0.00 0.00 82 1025.5
20191210231809 22 348 0.0 0.0 0.00 0.00 0.00 82 1025.6
20191210230824 22 348 0.0 0.0 0.00 0.00 0.00 82 1025.7
20191210230309 22 348 0.0 0.0 0.00 0.00 0.00 82 1025.7
20191210225814 22 348 0.0 0.0 0.00 0.00 0.00 82 1025.8
20191210225310 22 348 0.0 0.0 0.00 0.00 0.00 82 1025.8
20191210224810 22 348 0.0 0.0 0.00 0.00 0.00 83 1025.8
20191210224313 22 348 0.0 0.0 0.00 0.00 0.00 83 1025.9
20191210223809 22 348 0.0 0.0 0.00 0.00 0.00 84 1026.0
20191210223309 22 348 0.0 0.0 0.00 0.00 0.00 84 1026.0
20191210222814 22 348 0.0 0.0 0.00 0.00 0.00 85 1026.1
20191210221810 21 348 0.0 0.0 0.00 0.00 0.00 86 1026.0
20191210221313 21 348 0.0 0.0 0.00 0.00 0.00 87 1026.1
20191210220809 21 348 0.0 0.0 0.00 0.00 0.00 87 1026.2
20191210220309 21 348 0.0 0.0 0.00 0.00 0.00 87 1026.1
20191210215813 20 348 0.0 0.0 0.00 0.00 0.00 87 1026.1
20191210215309 20 348 0.0 0.0 0.00 0.00 0.00 86 1026.2
20191210214810 20 348 0.0 0.0 0.00 0.00 0.00 86 1026.2
20191210214313 20 348 0.0 0.0 0.00 0.00 0.00 86 1026.2
20191210213810 20 348 0.0 0.0 0.00 0.00 0.00 86 1026.2
20191210213309 20 348 0.0 0.0 0.00 0.00 0.00 86 1026.3
20191210212309 20 348 0.0 0.0 0.00 0.00 0.00 87 1026.3
20191210211809 20 348 0.0 0.0 0.00 0.00 0.00 87 1026.3
20191210211313 20 348 0.0 0.0 0.00 0.00 0.00 86 1026.3
20191210210810 20 348 0.0 0.0 0.00 0.00 0.00 86 1026.2
20191210210309 21 348 0.0 0.0 0.00 0.00 0.00 86 1026.2
20191210205309 21 348 0.0 0.0 0.00 0.00 0.00 85 1026.1
20191210204810 21 348 0.0 0.0 0.00 0.00 0.00 85 1026.1
20191210204313 21 348 0.0 0.0 0.00 0.00 0.00 85 1026.1
20191210203809 21 348 0.0 0.0 0.00 0.00 0.00 84 1026.1
20191210203309 22 348 0.0 0.0 0.00 0.00 0.00 83 1026.0
20191210202813 22 348 0.0 0.0 0.00 0.00 0.00 83 1026.0
20191210201809 22 348 0.0 0.0 0.00 0.00 0.00 83 1026.1
20191210201314 23 348 0.0 0.0 0.00 0.00 0.00 82 1026.1
20191210200309 23 348 0.0 0.0 0.00 0.00 0.00 82 1026.1
20191210195813 23 348 0.0 0.0 0.00 0.00 0.00 81 1026.0
20191210195310 23 348 0.0 0.0 0.00 0.00 0.00 81 1026.0
20191210194809 23 348 0.0 0.0 0.00 0.00 0.00 80 1025.9
20191210194313 23 348 0.0 0.0 0.00 0.00 0.00 80 1026.0
20191210193809 24 348 0.0 0.0 0.00 0.00 0.00 80 1025.9
20191210193309 24 348 0.0 0.0 0.00 0.00 0.00 80 1026.0
20191210192813 24 348 0.0 0.0 0.00 0.00 0.00 80 1026.0
20191210192310 24 348 0.0 0.0 0.00 0.00 0.00 80 1025.9
20191210191809 24 348 0.0 0.0 0.00 0.00 0.00 80 1025.9
20191210191313 24 348 0.0 0.0 0.00 0.00 0.00 80 1025.9
20191210190809 24 348 0.0 0.0 0.00 0.00 0.00 80 1025.9
20191210190309 25 348 0.0 0.0 0.00 0.00 0.00 80 1025.8
20191210185310 25 348 0.0 0.0 0.00 0.00 0.00 80 1025.8
20191210184810 25 348 0.0 0.0 0.00 0.00 0.00 80 1025.8
20191210184313 25 348 0.0 0.0 0.00 0.00 0.00 80 1025.7
20191210183809 26 348 0.0 0.0 0.00 0.00 0.00 80 1025.8
20191210183309 26 348 0.0 0.0 0.00 0.00 0.00 79 1025.7
20191210182813 26 348 0.0 0.0 0.00 0.00 0.00 79 1025.6
20191210182309 26 348 0.0 0.0 0.00 0.00 0.00 78 1025.6
20191210181313 28 348 0.0 0.0 0.00 0.00 0.00 77 1025.6
20191210180809 28 348 0.0 0.0 0.00 0.00 0.00 76 1025.5
20191210180309 29 348 0.0 0.0 0.00 0.00 0.00 75 1025.5
20191210175814 29 348 0.0 0.0 0.00 0.00 0.00 75 1025.4
20191210175309 29 348 0.0 0.0 0.00 0.00 0.00 75 1025.3
20191210174313 30 348 0.0 0.0 0.00 0.00 0.00 74 1025.2
20191210173309 30 348 0.0 0.0 0.00 0.00 0.00 73 1025.2
20191210172813 30 348 0.0 2.0 0.00 0.00 0.00 72 1025.1
20191210171810 30 348 0.0 5.0 0.00 0.00 0.00 72 1025.0
20191210170809 31 339 0.0 1.0 0.00 0.00 0.00 72 1025.0
20191210170309 31 338 1.0 3.0 0.00 0.00 0.00 72 1025.0
20191210165813 31 342 1.0 3.0 0.00 0.00 0.00 72 1025.0
20191210165310 31 337 1.0 7.0 0.00 0.00 0.00 72 1025.1
20191210164810 31 308 0.0 9.0 0.00 0.00 0.00 72 1025.1
20191210164314 31 310 5.0 9.0 0.00 0.00 0.00 72 1025.0
20191210163809 31 312 2.0 7.0 0.00 0.00 0.00 72 1025.0
20191210163310 31 313 0.0 6.0 0.00 0.00 0.00 72 1024.9
20191210162814 31 313 2.0 6.0 0.00 0.00 0.00 72 1024.9
20191210162310 31 313 1.0 7.0 0.00 0.00 0.00 73 1024.8
20191210161810 31 313 0.0 0.0 0.00 0.00 0.00 73 1024.8
20191210161313 31 312 1.0 5.0 0.00 0.00 0.00 73 1024.7
20191210160810 31 312 0.0 8.0 0.00 0.00 0.00 73 1024.7
20191210160309 31 313 0.0 7.0 0.00 0.00 0.00 73 1024.7
20191210155813 31 313 0.0 0.0 0.00 0.00 0.00 73 1024.5
20191210155310 31 313 0.0 2.0 0.00 0.00 0.00 73 1024.5
20191210154811 31 313 0.0 0.0 0.00 0.00 0.00 73 1024.6
20191210154313 31 313 0.0 0.0 0.00 0.00 0.00 73 1024.6
20191210153810 31 313 0.0 0.0 0.00 0.00 0.00 73 1024.5
20191210153309 32 313 0.0 0.0 0.00 0.00 0.00 73 1024.3
20191210152813 32 313 0.0 0.0 0.00 0.00 0.00 73 1024.3
20191210152309 32 313 1.0 3.0 0.00 0.00 0.00 73 1024.2
20191210151810 32 313 0.0 0.0 0.00 0.00 0.00 72 1024.3
20191210151314 32 313 0.0 0.0 0.00 0.00 0.00 72 1024.3
20191210150809 32 313 0.0 0.0 0.00 0.00 0.00 71 1024.2
20191210150309 32 313 1.0 7.0 0.00 0.00 0.00 71 1024.1
20191210145813 33 316 0.0 0.0 0.00 0.00 0.00 71 1024.0
20191210145310 33 316 1.0 7.0 0.00 0.00 0.00 71 1024.1
20191210144810 33 319 0.0 7.0 0.00 0.00 0.00 71 1024.1
20191210144314 33 319 2.0 7.0 0.00 0.00 0.00 71 1024.0
20191210143809 33 316 2.0 6.0 0.00 0.00 0.00 72 1023.9
20191210143310 33 322 0.0 6.0 0.00 0.00 0.00 72 1023.8
20191210142813 33 322 1.0 6.0 0.00 0.00 0.00 73 1023.8
20191210142309 33 320 0.0 0.0 0.00 0.00 0.00 73 1023.8
20191210141810 33 320 0.0 0.0 0.00 0.00 0.00 74 1023.7
20191210141314 33 320 0.0 0.0 0.00 0.00 0.00 73 1023.6
20191210140809 33 320 0.0 1.0 0.00 0.00 0.00 73 1023.6
20191210140310 33 320 0.0 5.0 0.00 0.00 0.00 72 1023.5
20191210135813 33 320 0.0 0.0 0.00 0.00 0.00 72 1023.5
20191210135311 33 320 2.0 6.0 0.00 0.00 0.00 72 1023.3
20191210134810 33 322 0.0 0.0 0.00 0.00 0.00 72 1023.3
20191210134313 33 322 1.0 5.0 0.00 0.00 0.00 71 1023.3
20191210133809 34 324 3.0 5.0 0.00 0.00 0.00 71 1023.3
20191210133309 34 328 0.0 5.0 0.00 0.00 0.00 72 1023.4
20191210132813 34 331 0.0 0.0 0.00 0.00 0.00 72 1023.3
20191210132309 34 331 0.0 0.0 0.00 0.00 0.00 71 1023.3
20191210131809 34 331 0.0 0.0 0.00 0.00 0.00 72 1023.3
20191210131313 34 331 0.0 0.0 0.00 0.00 0.00 71 1023.3
20191210130810 34 331 1.0 7.0 0.00 0.00 0.00 71 1023.1
20191210130310 34 335 1.0 8.0 0.00 0.00 0.00 71 1023.0
20191210125814 34 5 0.0 0.0 0.00 0.00 0.00 71 1023.0
20191210125310 34 5 0.0 0.0 0.00 0.00 0.00 71 1023.0
20191210124809 35 5 0.0 0.0 0.00 0.00 0.00 70 1022.8
20191210124314 35 5 0.0 0.0 0.00 0.00 0.00 70 1022.8
20191210123810 35 5 0.0 0.0 0.00 0.00 0.00 70 1022.8
20191210123309 35 5 0.0 5.0 0.00 0.00 0.00 69 1022.8
20191210122813 35 355 0.0 5.0 0.00 0.00 0.00 69 1022.7